Tracking 29606 objects as of 18-Sep-2024
HD Live streaming from Space Station
objects crossing your sky now

THOR ABLESTAR DEB

Track THOR ABLESTAR DEB now!
10-day predictions


NORAD ID: 210
Int'l Code: 1961-015BE
Perigee: 909.8 km
Apogee: 976.7 km
Inclination: 66.5 °
Period: 103.8 minutes
Semi major axis: 7314 km
RCS: 0.1684 m2 (medium)
Launch date: June 29, 1961
Source: United States (US)
Launch site: AIR FORCE EASTERN TEST RANGE (AFETR)

Note: This is SATELLITE DEBRIS
Your satellite tracking list
Your tracking list is empty




NASA's NSSDC Master Catalog

Two Line Element Set (TLE):
1 00210U 61015BE  24261.93359718  .00001334  00000-0  11783-2 0  9999
2 00210  66.4566 137.2395 0045755 345.3198  14.6544 13.87859584176924
Source of the keplerian elements: AFSPC